This demonstration page uses our WeatherBlox Daily Observations layout. Learn more.

Hourly Observations for June 18, 2015

Temp ( °F °C ) Dew Point ( °F °C ) Humidity (%) Winds ( mph kmh ) Pressure ( in mb ) Visibility ( mi km ) Precip ( " mm )
12:15 am 00:15 Clear 68 20 65 18.3 90 90 E 5 7 29.94 1014 10 16.0934 0 0
12:35 am 00:35 Clear 68 20.1 65 18.5 91 91 E 5 7 29.94 1014 10 16.0934 0 0
12:55 am 00:55 Clear 68 20.1 65 18.2 89 89 E 6 9 29.91 1013 10 16.0934 0 0
1:15 am 01:15 Clear 68 20.2 65 18.1 88 88 E 6 9 29.91 1013 10 16.0934 0 0
1:35 am 01:35 Clear 68 19.8 64 18 89 89 E 5 7 29.94 1014 10 16.0934 0 0
1:55 am 01:55 Clear 67 19.6 64 17.8 89 89 E 6 9 29.91 1013 10 16.0934 0 0
2:15 am 02:15 Partly Cloudy 67 19.6 64 17.9 90 90 E 5 7 29.91 1013 10 16.0934 0 0
2:35 am 02:35 Mostly Cloudy 67 19.6 64 18 91 91 E 5 7 29.91 1013 10 16.0934 0 0
2:55 am 02:55 Partly Cloudy 67 19.3 64 17.8 91 91 E 3 6 29.94 1014 10 16.0934 0 0
3:15 am 03:15 Clear 66 19.1 64 18 93 93 E 5 7 29.94 1014 7 11.26538 0 0
3:35 am 03:35 Clear 66 19 64 17.7 92 92 ESE 5 7 29.91 1013 7 11.26538 0 0
3:55 am 03:55 Clear 66 18.8 64 17.6 93 93 ESE 7 11 29.91 1013 7 11.26538 0 0
4:15 am 04:15 Clear 66 18.9 64 17.6 92 92 ESE 7 11 29.91 1013 7 11.26538 0 0
4:35 am 04:35 Clear 66 19 64 17.6 92 92 ESE 7 11 29.91 1013 7 11.26538 0 0
4:55 am 04:55 Clear 66 18.8 64 17.5 92 92 SE 6 9 29.91 1013 10 16.0934 0 0
5:15 am 05:15 Clear 65 18.6 63 17.2 92 92 SE 6 9 29.91 1013 10 16.0934 0 0
5:35 am 05:35 Clear 65 18.5 63 17 91 91 SE 5 7 29.91 1013 10 16.0934 0 0
5:55 am 05:55 Clear 65 18.5 63 17 91 91 SSE 6 9 29.91 1013 10 16.0934 0 0
6:15 am 06:15 Sunny 65 18.2 62 16.8 92 92 Calm 29.91 1013 10 16.0934 0 0
6:35 am 06:35 Sunny 65 18.5 63 17 91 91 NNW 7 11 29.97 1015 10 16.0934 0 0
6:55 am 06:55 Mostly Cloudy with Nearby Thunderstorms 65 18.6 62 16.9 90 90 N 30 48 30.03 1017 10 16.0934 0 0
7:15 am 07:15 Cloudy with Heavy Thunderstorms 61 16.2 59 14.8 91 91 NNW 16 26 30.06 1018 2.5 4.02335 0.24 6.096
7:35 am 07:35 Cloudy with Thunderstorms 61 16.3 59 15.2 93 93 N 12 19 30.06 1018 7 11.26538 0.38 9.652
7:55 am 07:55 Cloudy 62 16.5 60 15.4 93 93 NE 13 20 30.03 1017 10 16.0934 0.39 9.906
8:15 am 08:15 Cloudy with Light Rain 61 16.2 59 15.2 94 94 ENE 18 30 30 1016 10 16.0934 0.02 0.508
8:35 am 08:35 Cloudy with Light Rain 62 16.5 59 15.2 92 92 NE 14 22 30 1016 10 16.0934 0.02 0.508
8:55 am 08:55 Cloudy with Light Rain 62 16.7 60 15.3 92 92 E 10 17 29.97 1015 10 16.0934 0.03 0.762
9:15 am 09:15 Mostly Cloudy 62 16.8 60 15.3 91 91 SE 14 22 29.91 1013 10 16.0934 0.01 0.254
9:35 am 09:35 Partly Cloudy 62 16.7 60 15.3 92 92 SE 13 20 29.91 1013 10 16.0934 0.01 0.254
9:55 am 09:55 Sunny 63 17 60 15.4 90 90 SE 7 11 29.94 1014 10 16.0934 0.01 0.254
10:15 am 10:15 Sunny 63 17.2 60 15.7 91 91 SW 3 6 29.97 1015 10 16.0934 0 0
10:35 am 10:35 Mostly Cloudy 64 17.5 60 15.8 90 90 NNW 7 11 30 1016 10 16.0934 0 0
10:55 am 10:55 Cloudy 64 18 61 16.2 89 89 N 8 13 30 1016 10 16.0934 0 0
11:15 am 11:15 Mostly Cloudy 65 18.3 61 16.1 87 87 NNW 8 13 30 1016 10 16.0934 0 0
11:35 am 11:35 Mostly Cloudy 65 18.6 61 16.1 85 85 NNW 9 15 30 1016 10 16.0934 0 0
11:55 am 11:55 Mostly Cloudy 67 19.5 61 16.3 82 82 N 9 15 30.03 1017 10 16.0934 0 0
12:15 pm 12:15 undefined 68 20 61 16.2 79 79 N 9 15 30.03 1017 10 16.0934 0 0
12:35 pm 12:35 Mostly Cloudy 68 20.1 62 16.4 79 79 NNW 10 17 30.03 1017 10 16.0934 0 0
12:55 pm 12:55 Mostly Cloudy 69 20.5 61 16 76 76 N 12 19 30 1016 10 16.0934 0 0
1:15 pm 13:15 Cloudy 69 20.5 61 16.3 77 77 NNW 13 20 30 1016 10 16.0934 0 0
1:35 pm 13:35 Mostly Cloudy 69 20.7 62 16.5 77 77 N 12 19 30 1016 10 16.0934 0 0
1:55 pm 13:55 Mostly Cloudy 71 21.5 62 16.6 74 74 N 10 17 29.97 1015 10 16.0934 0 0
2:15 pm 14:15 Mostly Cloudy 71 21.8 63 17.3 76 76 N 14 22 29.97 1015 10 16.0934 0 0
2:35 pm 14:35 Cloudy 71 21.6 62 16.9 75 75 NNE 13 20 29.97 1015 10 16.0934 0 0
2:55 pm 14:55 Cloudy 72 22 62 16.9 73 73 N 14 22 29.97 1015 10 16.0934 0 0
3:15 pm 15:15 Mostly Cloudy 71 21.4 62 16.5 74 74 NNE 14 22 29.97 1015 10 16.0934 0 0
3:35 pm 15:35 Mostly Cloudy 71 21.8 60 15.8 69 69 NNE 13 20 29.97 1015 10 16.0934 0 0
3:55 pm 15:55 Cloudy 71 21.9 61 16 69 69 NNE 10 17 29.97 1015 10 16.0934 0 0
4:15 pm 16:15 Cloudy 70 21.3 62 16.4 74 74 NE 13 20 29.97 1015 10 16.0934 0 0
4:35 pm 16:35 Cloudy 70 21.3 61 15.9 71 71 NE 10 17 29.97 1015 10 16.0934 0 0
4:55 pm 16:55 Cloudy 70 21.3 61 16.2 73 73 NE 10 17 29.97 1015 10 16.0934 0 0
5:15 pm 17:15 Cloudy 70 21.1 62 16.5 75 75 NE 12 19 30 1016 10 16.0934 0 0
5:35 pm 17:35 Cloudy 69 20.7 62 16.6 77 77 NNE 13 20 30 1016 10 16.0934 0 0
5:55 pm 17:55 Cloudy 70 21.1 61 16.2 74 74 NE 14 22 30 1016 10 16.0934 0 0
6:15 pm 18:15 Cloudy 70 21 61 16 73 73 NE 15 24 29.97 1015 10 16.0934 0 0
6:35 pm 18:35 Mostly Cloudy 71 21.6 61 16.1 71 71 NE 13 20 29.97 1015 10 16.0934 0 0
6:55 pm 18:55 Cloudy 69 20.8 62 16.5 77 77 NE 14 22 29.97 1015 10 16.0934 0 0
7:15 pm 19:15 Mostly Cloudy 69 20.6 61 16.2 76 76 NE 14 22 29.97 1015 10 16.0934 0 0
7:35 pm 19:35 Partly Cloudy 68 20.1 61 16.3 79 79 NE 9 15 30 1016 10 16.0934 0 0
7:55 pm 19:55 Partly Cloudy 67 19.6 60 15.8 79 79 ENE 10 17 30 1016 10 16.0934 0 0
8:15 pm 20:15 Sunny 68 19.9 61 16 78 78 ENE 10 17 30 1016 10 16.0934 0 0
8:35 pm 20:35 Sunny 67 19.3 60 15.8 80 80 ENE 7 11 30 1016 10 16.0934 0 0
8:55 pm 20:55 Sunny 65 18.6 60 15.8 84 84 ENE 5 7 30.03 1017 10 16.0934 0 0
9:15 pm 21:15 Clear 64 18 60 15.5 85 85 E 5 7 30.03 1017 10 16.0934 0 0
9:35 pm 21:35 Clear 63 17.2 59 15.2 88 88 ENE 6 9 30.03 1017 10 16.0934 0 0
9:55 pm 21:55 Clear 62 16.9 60 15.3 90 90 ENE 3 6 30.03 1017 10 16.0934 0 0
10:15 pm 22:15 Clear 63 17 60 15.5 91 91 ENE 3 6 30.09 1019 10 16.0934 0 0
10:35 pm 22:35 Clear 62 16.7 59 15.1 90 90 ENE 5 7 30.09 1019 10 16.0934 0 0
10:55 pm 22:55 Clear 62 16.4 59 14.9 91 91 NE 6 9 30.09 1019 10 16.0934 0 0
11:15 pm 23:15 Clear 61 16 59 14.8 93 93 ENE 5 7 30.09 1019 10 16.0934 0 0
11:35 pm 23:35 Clear 61 16.1 58 14.6 91 91 E 6 9 30.09 1019 10 16.0934 0 0
11:55 pm 23:55 Clear 61 16.2 58 14.6 90 90 E 8 13 30.09 1019 10 16.0934 0 0

Powered by AerisWeather